Regional Weather Roundup
Issued by NWS

Home | Current Version | Previous Version | Graphics & Text | Print | Product List | Glossary On
Versions: 1 2 3 4 5 6 7 8 9 10 11 12 13 14 15 16 17 18 19 20 21 22 23 24 25 26 27 28 29 30 31 32 33 34 35 36 37 38 39 40 41 42 43 44 45 46 47 48 49 50
000
ASUS43 KLOT 172310
RWRIL

ILLINOIS REGIONAL WEATHER ROUNDUP
NATIONAL WEATHER SERVICE CHICAGO/ROMEOVILLE IL
500 PM CST WED DEC 17 2014

NOTE: "FAIR" INDICATES FEW OR NO CLOUDS BELOW 12,000 FEET WITH NO
SIGNIFICANT WEATHER AND/OR OBSTRUCTIONS TO VISIBILITY.

* THESE STATIONS ARE NOT UNDER NWS QUALITY CONTROL. THEY ALSO MAY NOT
  REPORT WEATHER SUCH AS PRECIPITATION OR FOG.

ILZ001-002-007-009-015-016-024-180000-
NORTHWEST ILLINOIS

CITY           SKY/WX    TMP DP  RH WIND       PRES   REMARKS
MOLINE         CLEAR     25  15  66 NW9       30.28S WCI  15
STERLING*      MOCLDY    25  14  63 NW7       30.27F WCI  17
SAVANNA*       PTCLDY    23  15  71 N6        30.28S WCI  16
$$

ILZ003-004-008-010-011-017-018-180000-
NORTH CENTRAL ILLINOIS

CITY           SKY/WX    TMP DP  RH WIND       PRES   REMARKS
ROCKFORD       CLOUDY    24  16  71 NW8       30.28R WCI  15
FREEPORT*      CLOUDY    22  16  77 NW8       30.28S WCI  12
ROCHELLE*      CLOUDY    23  17  77 N10       30.27R WCI  13
DE KALB*       CLOUDY    22  16  78 W10       30.25S WCI  11
PERU*          CLOUDY    27  20  73 NW7       30.28S WCI  20
$$

ILZ005-006-012>014-019>023-180000-
NORTHEAST ILLINOIS

CITY           SKY/WX    TMP DP  RH WIND       PRES   REMARKS
CHICAGO-OHARE  CLOUDY    25  16  68 NW9       30.24R WCI  15
CHICAGO-MIDWAY CLOUDY    28  17  63 W8        30.25S WCI  20
AURORA         CLOUDY    25  16  68 W12       30.26R WCI  14
LANSING*       CLOUDY    26  18  69 NW6       30.25S WCI  20
JOLIET*        CLOUDY    26  18  71 W6        30.26F WCI  19
WAUKEGAN       MOCLDY    24  15  68 W6        30.23R WCI  17
DUPAGE AIRPORT CLOUDY    25  17  72 W7        30.24R WCI  17
KANKAKEE*      CLOUDY    27  20  74 W14       30.27S WCI  16
WHEELING       CLOUDY    26  16  65 NW10      30.26R WCI  16
MORRIS*        CLOUDY    26  21  80 W10       30.26S WCI  16
ROMEOVILLE*    CLOUDY    26  18  72 NW7       30.25F WCI  18
NORTHERLY ISL    N/A     27  17  66 W9          N/A  WCI  18
$$

LMZ740>746-180000-
SOUTHERN LAKE MICHIGAN

STATION/POSITION SKY/WX   TEMP    WIND        PRES    VSBY  WAVE
                          AIR SEA DIR/SP/G                  HT/PER
                          (F)     (DEG/KT/KT) (MB)    (MI)  (FT/S)
WAUKEGAN HARBOR            25     320/  6/ 14   N/A
HARRISON CRIB              26     270/ 13/ 17   N/A
BURNHAM HARBOR             27     250/  4/ 12   N/A
CALUMET HARBOR             26     280/  6/ 12 1023.0S
$$

ILZ025>027-034>036-040-047-049-050-058-095>099-180000-
WEST-CENTRAL ILLINOIS

CITY           SKY/WX    TMP DP  RH WIND       PRES   REMARKS
QUINCY         CLEAR     25  18  74 N3        30.30S
GALESBURG*     CLEAR     25  19  79 W7        30.28R WCI  17
MACOMB*        CLEAR     26  21  83 W6        30.30S WCI  19
JACKSONVILLE*  CLEAR     27  21  77 NW3       30.31S
PITTSFIELD*    CLEAR     29  21  73 CALM      30.31S
$$

ILZ028>032-037-038-041>044-048-051>054-059>061-180000-
CENTRAL ILLINOIS

CITY           SKY/WX    TMP DP  RH WIND       PRES   REMARKS
PONTIAC        CLOUDY    28  22  79 NW7       30.28S WCI  20
BLOOMINGTON    CLOUDY    25  20  81 CALM      30.28R
DECATUR        CLOUDY    24  19  81 W6        30.30R WCI  17
PEORIA         PTCLDY    28  18  66 CALM      30.29R
LACON*         CLOUDY    27  19  71 NW6       30.27S WCI  21
LINCOLN*       PTCLDY    26  20  79 CALM      30.31R
SPRINGFIELD    CLEAR     24  18  77 W6        30.31R WCI  17
TAYLORVILLE    PTCLDY    27  21  80 CALM      30.30S
$$

ILZ033-039-045-046-055>057-062-063-180000-
EAST-CENTRAL ILLINOIS

CITY           SKY/WX    TMP DP  RH WIND       PRES   REMARKS
CHAMPAIGN      CLOUDY    24  18  77 W7        30.28R WCI  16
DANVILLE*      CLOUDY    24  19  83 W7        30.25S WCI  16
RANTOUL*       CLOUDY    27  21  79 W5        30.28S WCI  21
MATTOON        CLOUDY    24  19  81 NW9       30.29R WCI  14
PARIS*         CLOUDY    25  22  88 NW3       30.30S
$$

ILZ079-100>102-180000-
SOUTHWEST ILLINOIS

CITY           SKY/WX    TMP DP  RH WIND       PRES   REMARKS
ALTON          PTCLDY    32  25  74 N7        30.29F WCI  26
BELLEVILLE     MOCLDY    36  26  68 N6        30.28F WCI  31
CAHOKIA*       MOCLDY    37  26  64 N7        30.29S WCI  32
SPARTA*        CLOUDY    35  28  74 CALM      30.29F
$$

ILZ064>066-069>071-074>076-080>082-084>086-088>090-092>094-180000-
SOUTH-CENTRAL ILLINOIS

CITY           SKY/WX    TMP DP  RH WIND       PRES   REMARKS
CARBONDALE     CLOUDY    37  26  64 CALM      30.29F
CAIRO*         MOCLDY    40  30  68 W5        30.30S
EFFINGHAM*     CLOUDY    29  22  74 NW5       30.31S WCI  24
MARION         PTCLDY    37  27  65 N6        30.31R WCI  33
MT. VERNON     MOCLDY    34  21  60 N3        30.30S
CENTRALIA*     MOCLDY    33  27  80 CALM      30.29F
SALEM*         PTCLDY    33  28  81 N3        30.30S
METROPOLIS*    PTCLDY    37  29  73 W3        30.29R
$$

ILZ067-068-072-073-078-083-087-091-180000-
SOUTHEAST ILLINOIS

CITY           SKY/WX    TMP DP  RH WIND       PRES   REMARKS
LAWRENCEVILLE  CLOUDY    30  23  75 N9        30.30S WCI  22
FLORA*         PTCLDY    31  26  81 N5        30.31R WCI  26
FAIRFIELD*     PTCLDY    32  27  80 N3        30.30R
HARRISBURG*    MOCLDY    35  27  72 N5        30.32R WCI  31
ROBINSON*      CLOUDY    29  24  81 NW7       30.31S WCI  22
CARMI*         PTCLDY    34  30  85 W3        30.30R
$$

ABBREVIATIONS USED IN REMARKS
   TC - TEMPERATURE IN CELSIUS
  WCI - WIND CHILL INDEX
   HX - HEAT INDEX
  VSB - VISIBILITY
$$



USA.gov is the U.S. government's official web portal to all federal, state and local government web resources and services.